Beaufort, NC

3:58 PM EST on December 12, 2017 (GMT -0500)
Smith

Weather History for KMRH - January, 2014

Change the Weather History Date:

Thursday, January 2, 2014

  Actual Average Record
Temperature  
Mean Temperature 54 °F -  
Max Temperature 61 °F 56 °F 74 °F (1985)
Min Temperature 48 °F 37 °F 20 °F (1969)
Degree Days  
Heating Degree Days 10    
Growing Degree Days 4 (Base 50)    
Moisture  
Dew Point 52 °F    
Average Humidity 98    
Maximum Humidity 100    
Minimum Humidity 93    
Precipitation  
Precipitation 0.62 in - - ()
Sea Level Pressure  
Sea Level Pressure 29.77 in    
Wind  
Wind Speed 5 mph (WNW)    
Max Wind Speed 30 mph    
Max Gust Speed 53 mph    
Visibility 6 miles    
Events Rain    
Averages and records for this station are not official NWS values.
T = Trace of Precipitation, MM = Missing Value Source: NWS Daily Summary

Daily Weather History Graph

Daily Weather History Graph

Search for Another Location

Airport or City:

Trip Planner

Search our weather history database for the weather conditions in past years. The results will help you decide how hot, cold, wet, or windy it might be!

Date:

Astronomy

Jan. 02, 2014 Rise Set
Actual Time 7:14 AM EST 5:07 PM EST
Civil Twilight 6:46 AM EST 5:35 PM EST
Nautical Twilight 6:14 AM EST 6:06 PM EST
Astronomical Twilight 5:44 AM EST 6:37 PM EST
Moon 7:58 AM EST (1/2) 6:56 PM EST (1/2)
Length of Visible Light 10h 49m
Length of Day
9h 53m
New Moon, 2% of the Moon is Illuminated
Jan 2
New Moon
Jan 7
First Quarter
Jan 15
Full
Jan 24
Last Quarter
Jan 30
New

Hourly Weather History & Observations

Time (EST) Temp. Dew Point Humidity Pressure Visibility Wind Dir Wind Speed Gust Speed Precip Events Conditions
12:50 AM 51.1 °F 51.1 °F 100% 30.11 in 2.0 mi Calm Calm - 0.03 in Rain Rain
12:58 AM 51.1 °F 51.1 °F 100% 30.12 in 3.0 mi Calm Calm - 0.03 in Rain Light Rain
1:18 AM 51.1 °F 51.1 °F 100% 30.10 in 6.0 mi NNW 3.5 mph - 0.00 in Rain Light Rain
1:39 AM 51.1 °F 51.1 °F 100% 30.09 in 7.0 mi Calm Calm - 0.01 in Rain Light Rain
1:58 AM 50.0 °F 48.9 °F 96% 30.09 in 5.0 mi Calm Calm - 0.01 in Rain Light Rain
2:58 AM 48.9 °F 48.0 °F 97% 30.08 in 9.0 mi NW 6.9 mph - 0.01 in   Overcast
3:11 AM 48.9 °F 48.0 °F 97% 30.06 in 9.0 mi NNW 8.1 mph - 0.00 in Rain Light Rain
3:20 AM 48.9 °F 48.0 °F 97% 30.06 in 9.0 mi NNW 6.9 mph - 0.01 in Rain Light Rain
3:33 AM 48.0 °F 48.0 °F 100% 30.07 in 10.0 mi NNW 10.4 mph - 0.01 in   Overcast
3:41 AM 48.0 °F 46.9 °F 96% 30.06 in 10.0 mi NNW 9.2 mph - 0.01 in Rain Light Rain
3:58 AM 48.0 °F 48.0 °F 100% 30.06 in 8.0 mi NNW 8.1 mph - 0.01 in Rain Light Rain
4:06 AM 48.0 °F 48.0 °F 100% 30.06 in 8.0 mi NNW 6.9 mph - 0.00 in Rain Light Rain
4:50 AM 48.9 °F 48.9 °F 100% 30.04 in 9.0 mi North 3.5 mph - 0.02 in Rain Light Rain
4:58 AM 48.9 °F 48.0 °F 97% 30.04 in 9.0 mi North 5.8 mph - 0.02 in Rain Light Rain
5:58 AM 48.0 °F 48.0 °F 100% 30.02 in 9.0 mi Calm Calm - 0.01 in Rain Light Rain
6:58 AM 48.9 °F 48.0 °F 97% 30.01 in 7.0 mi Calm Calm - 0.00 in Rain Light Rain
7:58 AM 48.9 °F 48.0 °F 97% 30.01 in 4.0 mi North 4.6 mph - 0.03 in Rain Light Rain
8:58 AM 48.9 °F 48.0 °F 97% 29.99 in 4.0 mi NNE 3.5 mph - 0.06 in Rain Rain
9:58 AM 48.9 °F 48.0 °F 97% 29.96 in 4.0 mi East 4.6 mph - 0.04 in Rain Rain
10:58 AM 51.1 °F 50.0 °F 96% 29.91 in 8.0 mi NE 4.6 mph - 0.06 in Rain Light Rain
11:10 AM 51.1 °F 50.0 °F 96% 29.90 in 9.0 mi East 4.6 mph - 0.00 in Rain Light Rain
11:58 AM 51.1 °F 51.1 °F 100% 29.86 in 6.0 mi Calm Calm - 0.00 in Rain Light Rain
12:56 PM 53.6 °F 51.8 °F 94% 29.82 in 5.0 mi Calm Calm - 0.01 in Rain Light Rain
12:58 PM 53.1 °F 52.0 °F 96% 29.82 in 5.0 mi NNW 3.5 mph - 0.02 in Rain Light Rain
1:20 PM 52.0 °F 51.1 °F 97% 29.79 in 5.0 mi NNW 6.9 mph - 0.00 in Rain Light Rain
1:50 PM 53.1 °F 52.0 °F 96% 29.79 in 7.0 mi NW 6.9 mph - 0.01 in Rain Light Rain
1:58 PM 53.1 °F 52.0 °F 96% 29.79 in 6.0 mi NW 5.8 mph - 0.01 in Rain Light Rain
2:58 PM 52.0 °F 52.0 °F 100% 29.75 in 4.0 mi Calm Calm - 0.04 in Rain Light Rain
3:12 PM 53.1 °F 53.1 °F 100% 29.74 in 2.0 mi Calm Calm - 0.02 in Rain Rain
3:23 PM 53.1 °F 52.0 °F 96% 29.75 in 5.0 mi Calm Calm - 0.02 in Rain Light Rain
3:33 PM 53.1 °F 53.1 °F 100% 29.73 in 1.8 mi Calm Calm - 0.04 in Rain Rain
3:42 PM 53.1 °F 52.0 °F 96% 29.73 in 3.0 mi Calm Calm - 0.05 in Rain Light Rain
3:58 PM 53.1 °F 52.0 °F 96% 29.73 in 3.0 mi Calm Calm - 0.06 in Rain Rain
4:06 PM 53.1 °F 53.1 °F 100% 29.73 in 2.5 mi Calm Calm - 0.01 in Rain Rain
4:18 PM 53.1 °F 52.0 °F 96% 29.72 in 3.0 mi SE 5.8 mph - 0.03 in Rain Rain
4:58 PM 53.1 °F 52.0 °F 96% 29.68 in 5.0 mi SE 6.9 mph - 0.06 in Rain Rain
5:58 PM 54.0 °F 53.1 °F 97% 29.66 in 10.0 mi SSE 5.8 mph - 0.04 in Rain Light Rain
6:36 PM 54.0 °F 54.0 °F 100% 29.63 in 9.0 mi Calm Calm - 0.02 in Rain Light Rain
6:58 PM 54.0 °F 54.0 °F 100% 29.62 in 10.0 mi Calm Calm - 0.02 in   Overcast
7:04 PM 55.0 °F 54.0 °F 96% 29.62 in 10.0 mi West 3.5 mph - N/A   Overcast
7:10 PM 55.0 °F 55.0 °F 100% 29.62 in 10.0 mi Calm Calm - N/A   Overcast
7:58 PM 55.9 °F 55.9 °F 100% 29.57 in 9.0 mi SSE 4.6 mph - 0.00 in   Overcast
8:17 PM 55.9 °F 55.9 °F 100% 29.56 in 5.0 mi South 4.6 mph - 0.01 in Rain Light Rain
8:21 PM 55.9 °F 55.9 °F 100% 29.55 in 6.0 mi South 4.6 mph - 0.01 in   Overcast
8:34 PM 57.0 °F 55.9 °F 96% 29.53 in 7.0 mi SSE 6.9 mph - 0.01 in   Overcast
8:58 PM 57.9 °F 57.0 °F 97% 29.52 in 3.0 mi South 6.9 mph - 0.01 in   Overcast
9:05 PM 57.9 °F 57.9 °F 100% 29.52 in 1.8 mi SSW 8.1 mph - N/A   Overcast
9:12 PM 59.0 °F 57.9 °F 96% 29.51 in 1.0 mi SSW 9.2 mph - N/A   Overcast
9:22 PM 59.0 °F 59.0 °F 100% 29.51 in 2.0 mi SW 13.8 mph - 0.00 in Rain Light Rain
9:30 PM 61.0 °F 60.1 °F 97% 29.51 in 10.0 mi SW 18.4 mph 26.5 mph 0.00 in   Overcast
9:43 PM 57.9 °F 57.9 °F 100% 29.53 in 2.5 mi WNW 29.9 mph 52.9 mph 0.02 in Rain Rain
9:58 PM 54.0 °F 53.1 °F 97% 29.55 in 3.0 mi WNW 24.2 mph 32.2 mph 0.04 in Rain Light Rain
10:11 PM 54.0 °F 53.1 °F 97% 29.54 in 4.0 mi WNW 19.6 mph - 0.00 in Rain Light Rain
10:22 PM 54.0 °F 53.1 °F 97% 29.54 in 4.0 mi WNW 19.6 mph - 0.01 in Rain Light Rain
10:31 PM 54.0 °F 53.1 °F 97% 29.54 in 4.0 mi WNW 18.4 mph - 0.01 in Rain Light Rain
10:45 PM 54.0 °F 53.1 °F 97% 29.55 in 2.5 mi WNW 18.4 mph - 0.02 in Rain Rain
10:53 PM 53.6 °F 51.8 °F 94% 29.55 in 3.0 mi WNW 18.4 mph 25.3 mph 0.03 in Rain Rain
10:58 PM 53.1 °F 52.0 °F 96% 29.55 in 3.0 mi WNW 17.3 mph 26.5 mph 0.03 in Rain Light Rain
11:16 PM 53.1 °F 52.0 °F 96% 29.53 in 4.0 mi West 12.7 mph - 0.01 in Rain Light Rain
11:26 PM 53.1 °F 52.0 °F 96% 29.54 in 10.0 mi West 9.2 mph - 0.01 in Rain Light Rain
11:58 PM 53.1 °F 51.1 °F 93% 29.57 in 10.0 mi West 20.7 mph 26.5 mph 0.01 in   Overcast